Regional Weather Roundup
Issued by NWS

Home | Current Version | Previous Version | Graphics & Text | Print | Product List | Glossary On
Versions: 1 2 3 4 5 6 7 8 9 10 11 12 13 14 15 16 17 18 19 20 21 22 23 24 25 26 27 28 29 30 31 32 33 34 35 36 37 38 39 40 41 42 43 44 45 46 47 48 49 50
000
ASUS45 KBOI 072210
RWRID

IDAHO REGIONAL WEATHER ROUNDUP
NATIONAL WEATHER SERVICE BOISE ID
300 PM MST WED DEC 07 2016

NOTE: "FAIR" INDICATES FEW OR NO CLOUDS BELOW 12000 FEET
WITH NO SIGNIFICANT WEATHER AND/OR OBSTRUCTIONS TO VISIBILITY

IDZ012-014-072300-
SOUTHWEST IDAHO


CITY           SKY/WX    TMP DP  RH WIND       PRES   REMARKS
BOISE          SUNNY     23  17  78 S9        30.36S WCI  13
CALDWELL       SUNNY     28  19  69 E7        30.39F WCI  21
MOUNTAIN HOME  SUNNY     23  23 100 E10       30.35F WCI  12
$$

IDZ016-017-072300-
SOUTHCENTRAL IDAHO


CITY           SKY/WX    TMP DP  RH WIND       PRES   REMARKS
BURLEY         SUNNY     20  13  74 VRB3      30.29S
JEROME         PTSUNNY   20  15  81 NW3       30.32R
TWIN FALLS     SUNNY     23  14  68 NW7       30.29F WCI  15
$$

IDZ019>023-072300-
SOUTHEAST IDAHO


CITY           SKY/WX    TMP DP  RH WIND       PRES   REMARKS
IDAHO FALLS    PTSUNNY   19   4  51 N6        30.29R WCI  11
POCATELLO      PTSUNNY   17  13  84 SW3       30.31R
REXBURG        SUNNY     14   0  53 NE6       30.29R WCI   5
$$

IDZ006-010-011-018-031-032-072300-
CENTRAL IDAHO MOUNTAINS


CITY           SKY/WX    TMP DP  RH WIND       PRES   REMARKS
MCCALL         CLOUDY    16   8  71 SE3       30.19S
HAILEY         PTSUNNY   16   9  73 S8        30.25R WCI   5
STANLEY          N/A      8   0  69 CALM      30.15R
SALMON         CLOUDY    19   7  58 CALM      30.29S
CHALLIS        SUNNY     21   7  54 NW3       30.21S
$$

IDZ002-004-006-007-026-072300-
NORTHERN IDAHO


CITY           SKY/WX    TMP DP  RH WIND       PRES   REMARKS
LEWISTON       SUNNY     29  19  66 E5        30.44F WCI  24
LOWELL           N/A     30  23  75 CALM      30.43F
COEUR D`ALENE  MOSUNNY   25  13  60 N13       30.41S WCI  14
MULLAN PASS    CLOUDY     5   2  87 CALM      30.16S
$$



USA.gov is the U.S. government's official web portal to all federal, state and local government web resources and services.